Weather Service Report


618 
ASUS45 KBOI 281010
RWRID 

IDAHO REGIONAL WEATHER ROUNDUP
NATIONAL WEATHER SERVICE BOISE ID
400 AM MDT FRI APR 28 2017

NOTE: "FAIR" INDICATES FEW OR NO CLOUDS BELOW 12000 FEET
WITH NO SIGNIFICANT WEATHER AND/OR OBSTRUCTIONS TO VISIBILITY

IDZ012-014-281100-
SOUTHWEST IDAHO

  
CITY           SKY/WX    TMP DP  RH WIND       PRES   REMARKS
BOISE          CLEAR     36  31  82 NW10      30.00R WCI  28          
CALDWELL       CLOUDY    41  31  67 W13       30.03R                  
MOUNTAIN HOME  CLEAR     34  34  99 NW10      29.98R WCI  26          
$$

IDZ016-017-281100-
SOUTHCENTRAL IDAHO

  
CITY           SKY/WX    TMP DP  RH WIND       PRES   REMARKS
BURLEY         LGT SNOW  33  29  85 W15       29.90R FOG     WCI  23  
JEROME         CLEAR     31  29  92 W12       29.92R WCI  22          
TWIN FALLS     CLEAR     31  28  89 W17       29.92S WCI  19          
$$

IDZ019>023-281100-
SOUTHEAST IDAHO

  
CITY           SKY/WX    TMP DP  RH WIND       PRES   REMARKS
IDAHO FALLS    CLOUDY    33  33 100 SW9       29.86R WCI  25          
POCATELLO      CLOUDY    30  28  92 SW7       29.88S WCI  23          
REXBURG        CLOUDY    33  31  92 S3        29.83R                  
$$

IDZ006-010-011-018-031-032-281100-
CENTRAL IDAHO MOUNTAINS

  
CITY           SKY/WX    TMP DP  RH WIND       PRES   REMARKS
MCCALL         PTCLDY    29  24  82 NW3       29.95S                  
HAILEY         CLEAR     32  18  55 NW7       29.88R WCI  26          
STANLEY          N/A     21  17  84 CALM      29.93R                  
SALMON         CLOUDY    34  25  69 CALM      29.95R                  
CHALLIS        CLOUDY    28  17  63 NW3       29.93S                  
$$

IDZ002-004-006-007-026-281100-
NORTHERN IDAHO

  
CITY           SKY/WX    TMP DP  RH WIND       PRES   REMARKS
LEWISTON       CLOUDY    46  35  65 S9        30.04R                  
LOWELL           N/A     40  37  89 CALM      30.08R                  
COEUR D'ALENE  PTCLDY    40  36  86 S7        29.98R                  
MULLAN PASS    LGT SNOW  27  27 100 VRB5      29.91S VSB 1   WCI  22  
$$
  

Return to Home page


Western Regional Climate Center, wrcc@dri.edu